Regional Weather Roundup
Issued by NWS Goodland, KS

Home | Current Version | Previous Version | Graphics & Text | Print | Product List | Glossary On
Versions: 1 2 3 4 5 6 7 8 9 10 11 12 13 14 15 16 17 18 19 20 21 22 23 24 25 26 27 28 29 30 31 32 33 34 35 36 37 38 39 40 41 42 43 44 45 46 47 48 49 50
000
ASUS43 KGLD 280159
RWRGLD

GOODLAND FORECAST AREA HOURLY WEATHER ROUNDUP
NATIONAL WEATHER SERVICE GOODLAND KS
800 PM MDT SUN JUL 27 2014

...OFFICIAL OBSERVATIONS...

CITY           SKY/WX    TMP DP  RH WIND       PRES   REMARKS
GOODLAND KS    CLEAR     74  53  48 SE5       30.28R
HILL CITY KS   CLEAR     78  53  41 NE7       30.19R
IMPERIAL NEB   CLOUDY    78  55  44 E7        30.25S
MCCOOK NEB     PTCLDY    77  54  44 E7        30.22R
AKRON CO       MOCLDY    79  45  29 SE14      30.31R
BURLINGTON CO  PTCLDY    76  48  37 SE7       30.30R
LIMON CO       CLOUDY    75  57  53 SE16      30.35R
$$

...UNOFFICIAL OBSERVATIONS...

CITY           SKY/WX    TMP DP  RH WIND       PRES   REMARKS
COLBY KS       CLEAR     75  55  50 E6        30.25S
LENORA KS        N/A     78  32  18 MISG        N/A
NORTON KS      CLEAR     75  45  33 NE5       30.20R
WAKEENEY KS      N/A     80  39  23 MISG        N/A
KIT CARSON CO    N/A     79  55  43 N12         N/A
$$



USA.gov is the U.S. government's official web portal to all federal, state and local government web resources and services.